Location: Home
(42.5358°N, 72.7383°W)
Time: 05:27:07
(UTC-05:00)

Explorer 11/Cluster Stage 4 - Pass Details

Date: 05 December 2021
Orbit: 467 x 1255 km, 28.8° (Epoch: 25 January)

Event Time Altitude Azimuth Distance (km) Brightness Sun altitude
Rises 03:14:36 0° 245° (WSW) 3,559 - -41.7°
Reaches altitude 10° 03:17:27 10° 233° (SW) 2,744 - -41.2°
Maximum altitude 03:23:01 27° 179° (S) 1,979 - -40.2°
Exits shadow 03:25:24 23° 151° (SSE) 2,224 9.0 -39.7°
Drops below altitude 10° 03:29:17 10° 126° (SE) 3,129 10.1 -39.0°
Sets 03:32:47 0° 115° (ESE) 4,155 11.0 -38.4°
